Hourly Data Report for February 07, 2003

SHERBROOKE A
QUEBEC

45°26'00.000" N
71°41'00.000" W
241.40 m
7028124
71610
YSC

Download Data

Hourly Data (February 2003)
Hourly Data Report for February 7, 2003
TIME
LST
Temp Definition
°C
Dew Point Definition
°C
Rel Hum Definition
%
Precip. Amount Definition
mm

Wind Dir Definition
10's deg

Wind Spd Definition
km/h
Visibility Definition
km
Stn Press Definition
kPa
Hmdx Definition


Wind Chill Definition


Weather Definition


00:00 -10.3 -13.3 79   9 4 15.0 98.96   -13  
01:00 -10.1 -13.3 77     0 15.0 98.86      
02:00 -10.4 -13.7 77   8 4 15.0 98.76   -13  
03:00 -10.2 -13.3 78   7 4 15.0 98.67   -13  
04:00 -9.7 -12.8 78   3 6 15.0 98.59   -13  
05:00 -9.9 -13.0 78   11 4 15.0 98.55   -12  
06:00 -7.4 -12.0 70   22 6 8.0 98.52   -11 Snow
07:00 -6.4 -11.8 65   21 9 15.0 98.47   -11  
08:00 -7.6 -11.6 73   32 6 16.1 98.47   -11 Snow
09:00 -6.9 -10.4 76   26 9 8.0 98.44   -11 Snow
10:00 -6.1 -9.8 75   23 11 19.3 98.35   -11 Snow
11:00 -6.5 -10.3 74   27 13 16.1 98.30   -12 Snow
12:00 -7.7 -12.1 71   29 11 19.3 98.20   -13 Snow
13:00 -8.5 -13.1 69   30 15 19.3 98.12   -15 Snow
14:00 -8.6 -13.8 66   28 15 24.1 98.05   -15 Mostly Cloudy
15:00 -8.9 -14.6 63   27 13 24.1 98.04   -15 Mostly Cloudy
16:00 -9.2 -15.1 62   28 15 24.1 98.00   -16 Mainly Clear
17:00 -10.9 -16.1 65   29 7 24.1 97.99   -15 Mainly Clear
18:00 -15.8 -18.7 78     0 15.0 97.98      
19:00 -15.5 -18.2 80     0 15.0 97.97      
20:00 -17.4 -20.1 79   25 9 15.0 97.97   -24  
21:00 -16.5 -18.9 82   27 11 15.0 97.97   -23  
22:00 -21.2 -23.9 79   22 7 15.0 97.96   -27  
23:00 -17.1 -21.3 70   21 9 15.0 97.96   -23  

Notes on Data Quality.

Legend

  • E = Estimated
  • M = Missing
  • NA = Not Available*
  • [empty] = Indicates an unobserved value
Date modified: